Location: Jackson Park
(37.2862°N, 79.9123°W)
Time: 02:23:47
(UTC+00:00)

Tiros 1 despin weight - Pass Details

Date: 13 May 2026
Orbit: 554 x 591 km, 48.2° (Epoch: 6 June)

Event Time Altitude Azimuth Distance (km) Brightness Sun altitude
Rises 12:00:16 0° 263° (W) 2,745 ? 19.7°
Reaches altitude 10° 12:02:43 10° 273° (W) 1,845 ? 20.2°
Maximum altitude 12:06:30 32° 338° (NNW) 971 ? 20.9°
Drops below altitude 10° 12:10:17 10° 42° (NE) 1,837 ? 21.6°
Sets 12:12:43 0° 53° (NE) 2,731 ? 22.1°
